{"data":{"norad_id":48989,"epoch":"2026-09-20T04:00:33.680736Z","epoch_age_seconds":50652,"freshness":"FRESH","line1":"1 48989U 21060Y   26263.16705649  .00000061  00000+0  12679-3 0  9998","line2":"2 48989  87.9154 209.9151 0002020  70.8548 289.2801 13.16594009252161","mean_motion":13.16594009,"eccentricity":0.000202,"inclination_deg":87.9154,"raan_deg":209.9151,"arg_perigee_deg":70.8548,"mean_anomaly_deg":289.2801,"bstar":0.00012679,"rev_number":25216,"period_min":109.37312414886,"perigee_km":1196.2272877355,"apogee_km":1199.2879491614,"semimajor_km":7575.8946184484,"source":"CELESTRAK","updated_at":"2026-09-20T09:00:44.627431Z"}}